Regional Weather Roundup
Issued by NWS

Home | Current Version | Previous Version | Graphics & Text | Print | Product List | Glossary On
Versions: 1 2 3 4 5 6 7 8 9 10 11 12 13 14 15 16 17 18 19 20 21 22 23 24 25 26 27 28 29 30 31 32 33 34 35 36 37 38 39 40 41 42 43 44 45 46 47 48 49 50
000
ASUS43 KBIS 292002
RWRND

NORTH DAKOTA REGIONAL WEATHER ROUNDUP
NATIONAL WEATHER SERVICE BISMARCK ND
300 PM CDT WED JUL 29 2015

NOTE: "FAIR" INDICATES FEW OR NO CLOUDS BELOW 12,000 FEET WITH NO
SIGNIFICANT WEATHER AND/OR OBSTRUCTIONS TO VISIBILITY.


NDZ001>003-009>011-017-292100-
NORTHWEST NORTH DAKOTA

CITY           SKY/WX    TMP DP  RH WIND       PRES   REMARKS
WILLISTON      MOSUNNY   82  46  28 W22G29    30.05S
MINOT          PTSUNNY   81  50  33 W23G35    29.97R
MINOT AFB      MOSUNNY   80  53  39 W17G33    29.95R
$$

NDZ018>021-031>035-040>046-292100-
SOUTHWEST NORTH DAKOTA

CITY           SKY/WX    TMP DP  RH WIND       PRES   REMARKS
BISMARCK       PTSUNNY   78  47  33 W22G30    30.05S
DICKINSON      MOSUNNY   80  46  30 W22G30    30.10S
GARRISON         N/A     77  52  41 W18G33    30.02R
HETTINGER ARPT MOSUNNY   81  40  23 W23G31    30.15F
$$

NDZ004>008-012>016-024-026-027-054-292100-
NORTHEAST NORTH DAKOTA

CITY           SKY/WX    TMP DP  RH WIND       PRES   REMARKS
GRAND FORKS    PTSUNNY   79  54  41 W22G35    29.81R
GRND FRKS AFB  SUNNY     79  54  41 NW24G40   29.83R
DEVILS LAKE    MOSUNNY   77  52  41 W31G37    29.88R
$$

NDZ022-023-025-028>030-036>039-047>053-292100-
SOUTHEAST NORTH DAKOTA

CITY           SKY/WX    TMP DP  RH WIND       PRES   REMARKS
FARGO          SUNNY     80  50  34 W28G45    29.88S
JAMESTOWN      MOSUNNY   79  52  38 W25G37    29.95S
$$



USA.gov is the U.S. government's official web portal to all federal, state and local government web resources and services.